Starlink 3761

operational
NORAD ID: 52262 Int'l Des: 2022-041 Owner: SPXS Country: US Constellation: starlink
LEOCIRCULAR

About Starlink 3761

Description loading...

Live Position

Loading 3D Globe...

Upcoming Passes

Altitude History

Altitude vs Time

uPlot chart will show altitude changes over time

Two-Line Element Set

1 52262U 22041B 25296.59496952 .00000117 00000-0 25433-4 0 9999
2 52262 53.2187 4.5137 0001477 101.9787 258.1371 15.08848666193661
Epoch: Oct 23, 2025 • Age: 12 hours

Current Status

Altitude 539.8 km
Velocity 7.60 km/s
Sub-Earth Point 23.76°N, 99.44°E
Launch Date Apr 21, 2022
Age 3.5 years
Type internet

Technical Details

Classification Payload
Mass 297.00 kg
Dry Mass 275.00 kg
Total Mass 297.00 kg
Length 0.20 m
Diameter 2.80 m
Span 9.00 m
Shape Box + pan
Manufacturer SPXS
Bus Type Starlink
Phase Status In Orbit
Owner/State SPXS/US

Large Constellations

Loading constellations...